Location: *
(49.6619°S, 177.4603°W)
Time: 05:23:28
(UTC+00:00)

Cosmos 2084 Rocket - Pass Details

Date: 31 January 2023
Orbit: 493 x 673 km, 62.8° (Epoch: 01 April)

Event Time Altitude Azimuth Distance (km) Brightness Sun altitude
Rises 09:10:27 0° 226° (SW) 3,070 9.2 -12.8°
Reaches altitude 10° 09:12:52 10° 231° (SW) 2,142 7.8 -13.1°
Maximum altitude 09:17:38 52° 306° (NW) 834 4.2 -13.6°
Enters shadow 09:20:48 19° 16° (NNE) 1,543 5.0 -13.9°
